Location: Unspecified
(50.7693°N, 0.0000°E)
Time: 05:24:16
(UTC+00:00)

A-11 Canister half - Pass Details

Date: 18 June 2019
Orbit: 1527 x 1682 km, 47.3° (Epoch: 13 October)

Event Time Altitude Azimuth Distance (km) Brightness Sun altitude
Rises 10:24:10 0° 281° (WNW) 4,684 11.3 56.8°
Reaches altitude 10° 10:27:16 10° 278° (W) 3,698 10.9 57.2°
Maximum altitude 10:36:15 56° 203° (SSW) 1,775 10.6 58.1°
Drops below altitude 10° 10:45:21 10° 129° (SE) 3,743 11.7 58.9°
Sets 10:48:31 0° 125° (SE) 4,743 12.0 59.2°
